Location: Unspecified
(0.0000°N, 0.0000°E)
Time: 09:12:01
(UTC+00:00)

Vanguard 1 - Visible Passes

Search period start: 03 April 2020 00:00
Search period end: 13 April 2020 00:00
Orbit: 649 x 3834 km, 34.2° (Epoch: 02 April)

Date Brightness Start Highest point End Pass type
(mag) Time Alt. Az. Time Alt. Az. Time Alt. Az.
03 Apr 13.5 01:25:39 14° NNE 01:28:03 14° NNE 01:36:08 10° ENE visible
03 Apr 13.3 03:38:54 10° NNW 03:54:38 48° NE 04:16:33 10° ESE visible
03 Apr 10.7 18:30:12 10° WSW 18:34:34 34° NW 18:38:39 10° NNE visible
04 Apr 13.4 01:45:53 18° NNE 01:50:09 20° NE 02:02:28 10° ENE visible
04 Apr 13.1 03:59:31 10° NW 04:16:07 60° NE 04:39:14 10° ESE visible
04 Apr 11.7 18:52:19 10° W 18:55:30 18° NW 18:58:38 10° N visible
05 Apr 13.2 02:06:14 22° N 02:11:56 27° NE 02:27:39 10° E visible
05 Apr 12.9 04:20:18 10° NW 04:37:35 73° NE 05:01:24 10° ESE visible
06 Apr 13.0 02:26:40 26° N 02:33:26 35° NE 02:51:54 10° E visible
06 Apr 12.8 04:41:17 10° NW 04:59:05 88° NE 05:23:11 10° SE visible
07 Apr 12.8 02:47:11 30° N 02:54:46 46° NE 03:15:21 10° ESE visible
07 Apr 12.8 05:02:32 10° WNW 05:20:43 77° SW 05:44:40 10° SE visible
08 Apr 13.6 00:54:59 15° NE 00:54:59 15° NE 01:00:37 10° ENE visible
08 Apr 12.7 03:07:46 33° NNW 03:16:00 59° NE 03:38:09 10° ESE visible
08 Apr 12.9 05:24:04 10° WNW 05:42:31 64° SW 06:05:57 10° SE visible
09 Apr 13.3 01:15:36 23° NE 01:15:36 23° NE 01:26:00 10° E visible
09 Apr 12.5 03:28:23 34° NW 03:37:17 74° NE 04:00:26 10° ESE visible
10 Apr 13.0 01:36:15 32° NE 01:36:15 32° NE 01:50:18 10° E visible
10 Apr 12.4 03:49:03 33° NW 03:58:40 90° NE 04:22:18 10° SE visible
11 Apr 12.7 01:56:53 43° NE 01:56:53 43° NE 02:13:47 10° ESE visible
11 Apr 12.5 04:09:42 30° WNW 04:20:14 75° SW 04:43:54 10° SE visible
12 Apr 12.3 02:17:32 57° NE 02:17:32 57° NE 02:36:37 10° ESE visible
12 Apr 12.6 04:30:19 24° WNW 04:42:02 61° SW 05:05:16 10° SE visible
